PROGRESS-MS 22

Last updated on Sat Jul 29 2023 00:02:07 GMT+0000 (Coordinated Universal Time)

1 55560U 23018A 23208.61713421 .00015820 00000+0 28372-3 0 9995 2 55560 51.6413 128.2059 0000549 66.5420 356.2728 15.50089259408066
UTC large
Height (km)
Speed (km/s)
/
Latitude / Longitude
Inclination (degrees)
Orbital Period (minutes)
Azimuth
Elevation
Range (km)
Doppler Factor

Next 0 passes for location: London (51.5072 / 0.1276)

Sorry there are no passes over London.